Location: Unspecified
(0.0000°N, 0.0000°E)
Time: 19:12:48
(UTC+00:00)

Transit 2A Rocket - All Passes

Search period start: 20 February 2018 00:00
Search period end: 02 March 2018 00:00
Orbit: 587 x 917 km, 66.7° (Epoch: 19 February)

Date Brightness Start Highest point End Pass type
(mag) Time Alt. Az. Time Alt. Az. Time Alt. Az.
20 Feb - 06:13:06 10° SE 06:16:22 15° ESE 06:19:43 10° ENE daylight
20 Feb - 07:53:07 10° SW 07:58:43 45° WNW 08:04:30 10° N daylight
20 Feb - 18:43:04 10° N 18:46:55 28° ENE 18:50:38 10° SE visible
20 Feb - 20:28:16 10° W 20:29:08 10° WSW 20:30:01 10° WSW visible
21 Feb - 07:10:25 10° SSW 07:16:19 88° WNW 07:22:27 10° NNE daylight
21 Feb - 18:02:42 10° NE 18:04:29 12° ENE 18:06:15 10° E daylight
21 Feb - 19:43:10 10° NW 19:46:47 25° WSW 19:50:19 10° SSW visible
22 Feb - 06:28:19 10° S 06:33:57 48° ESE 06:39:47 10° NE daylight
22 Feb - 08:13:16 10° W 08:16:25 15° WNW 08:19:37 10° NW daylight
22 Feb - 19:00:05 10° NNW 19:04:27 62° WSW 19:08:40 10° S visible
23 Feb - 05:46:54 10° SSE 05:51:35 24° ESE 05:56:22 10° ENE visible
23 Feb - 07:28:54 10° SW 07:33:58 29° WNW 07:39:08 10° NNW daylight
23 Feb - 18:17:47 10° N 18:22:05 51° ENE 18:26:14 10° SE daylight
24 Feb - 05:07:09 10° SE 05:09:12 12° ESE 05:11:16 10° E visible
24 Feb - 06:45:45 10° SSW 06:51:33 56° WNW 06:57:31 10° N daylight
24 Feb - 17:36:18 10° NNE 17:39:41 21° ENE 17:42:58 10° ESE daylight
24 Feb - 19:19:35 10° WNW 19:21:56 14° WSW 19:24:14 10° SW visible
25 Feb - 06:03:15 10° SSW 06:09:10 75° ESE 06:15:15 10° NNE daylight
25 Feb - 18:35:37 10° NW 18:39:34 33° WSW 18:43:26 10° S visible
26 Feb - 05:21:21 10° S 05:26:47 38° ESE 05:32:23 10° NE visible
26 Feb - 07:05:12 10° WSW 07:09:13 19° WNW 07:13:19 10° NNW daylight
26 Feb - 17:52:49 10° NNW 17:57:14 85° WSW 18:01:30 10° SSE daylight
27 Feb - 04:40:16 10° SSE 04:44:25 20° ESE 04:48:39 10° ENE visible
27 Feb - 06:21:23 10° SW 06:26:47 36° WNW 06:32:19 10° N daylight
27 Feb - 17:10:46 10° N 17:14:52 37° ENE 17:18:49 10° SE daylight
28 Feb - 05:38:27 10° SSW 05:44:23 71° WNW 05:50:28 10° NNE visible
28 Feb - 16:29:43 10° NNE 16:32:27 16° ENE 16:35:07 10° ESE daylight
28 Feb - 18:11:38 10° WNW 18:14:42 19° WSW 18:17:44 10° SSW daylight
01 Mar - 04:56:09 10° S 05:02:00 60° ESE 05:08:00 10° NNE visible
01 Mar - 06:42:47 10° W 06:44:30 11° WNW 06:46:13 10° NW daylight
01 Mar - 17:28:11 10° NW 17:32:22 45° WSW 17:36:26 10° S daylight
